This is the latest recevied weather packets stored in our database for station/object JE9BHE-13. If no packets are shown the sender has not sent any weather packets the latest 10 day(s).
| Time | Temp. | Humidity | Pressure | Rain* | Wind** | Luminosity | Snow |
|---|---|---|---|---|---|---|---|
| 1778003287 | 16.67° C | 57% | 1021.3 hPa | 0 mm | - | - | - |
| 1778002746 | 17.22° C | 56% | 1021.2 hPa | 0 mm | - | - | - |
| 1778001668 | 16.67° C | 57% | 1020.9 hPa | 0 mm | - | - | - |
| 1778001307 | 17.22° C | 56% | 1021.3 hPa | 0 mm | - | - | - |
| 1778000946 | 17.22° C | 56% | 1021 hPa | 0 mm | - | - | - |
| 1778000228 | 17.22° C | 56% | 1020.8 hPa | 0 mm | - | - | - |
| 1778000046 | 17.22° C | 56% | 1021 hPa | 0 mm | - | - | - |
| 1777999507 | 17.22° C | 56% | 1020.8 hPa | 0 mm | - | - | - |
| 1777996807 | 16.67° C | 57% | 1021.5 hPa | 0 mm | - | - | - |
| 1777993027 | 16.67° C | 59% | 1021.4 hPa | 0 mm | - | - | - |
| 1777992487 | 16.67° C | 58% | 1021.4 hPa | 0 mm | - | - | - |
| 1777992306 | 16.67° C | 59% | 1021.5 hPa | 0 mm | - | - | - |
| 1777991767 | 16.67° C | 58% | 1021.8 hPa | 0 mm | - | - | - |
| 1777991587 | 16.67° C | 59% | 1021.4 hPa | 0 mm | - | - | - |
| 1777989967 | 17.22° C | 59% | 1021.3 hPa | 0 mm | - | - | - |
| 1777989248 | 16.67° C | 60% | 1021.3 hPa | 0 mm | - | - | - |
| 1777988886 | 16.67° C | 60% | 1021.4 hPa | 0 mm | - | - | - |
| 1777988347 | 16.67° C | 61% | 1021.6 hPa | 0 mm | - | - | - |
| 1777986367 | 16.11° C | 62% | 1022 hPa | 0 mm | - | - | - |
| 1777983126 | 11.67° C | 83% | 1022 hPa | 0 mm | - | - | - |
| 1777982047 | 11.67° C | 79% | 1021.9 hPa | 0 mm | - | - | - |
| 1777977548 | 13.89° C | 67% | 1021.2 hPa | 0 mm | - | - | - |
| 1777977007 | 14.44° C | 66% | 1021.5 hPa | 0 mm | - | - | - |
| 1777975208 | 15.56° C | 59% | 1021.3 hPa | 0 mm | - | - | - |
| 1777975026 | 15.56° C | 59% | 1021.3 hPa | 0 mm | - | - | - |
* Rain latest hour (hover to see other rain measurements)
** Current wind speed in m/s (hover to see current wind gust speed)